Time,TemperatureF,DewpointF,PressureIn,WindDirection,WindDirectionDegrees,WindSpeedMPH,WindSpeedGustMPH,Humidity,HourlyPrecipIn,Conditions,Clouds,dailyrainin,SolarRadiationWatts/m^2,SoftwareType,DateUTC
2013-02-08 00:00:00,34.9,33.6,30.06,NNW,327,2.3,4.6,95,0.00,CLR,,0.72,0.0,WeatherDisplay:10.37,2013-02-08 06:00:00,
2013-02-08 00:05:00,34.9,33.6,30.06,NNW,327,2.3,4.6,95,0.00,RA,,0.00,0.0,WeatherDisplay:10.37,2013-02-08 06:05:00,
2013-02-08 00:10:00,34.9,33.6,30.06,NNW,327,2.3,4.6,95,0.00,RA,,0.00,0.0,WeatherDisplay:10.37,2013-02-08 06:10:00,
2013-02-08 00:15:00,34.9,33.6,30.06,NNW,327,2.3,4.6,95,0.00,CLR,,0.00,0.0,WeatherDisplay:10.37,2013-02-08 06:15:00,
2013-02-08 00:20:00,33.0,30.4,30.10,NNW,336,6.9,6.9,90,0.00,CLR,,0.72,0.0,WeatherDisplay:10.37,2013-02-08 06:20:00,
2013-02-08 00:25:00,33.0,30.4,30.10,NW,311,6.9,6.9,90,0.00,RA,,0.72,0.0,WeatherDisplay:10.37,2013-02-08 06:25:00,
2013-02-08 00:30:00,33.1,30.5,30.10,NNW,342,3.5,5.6,90,0.00,CLR,,0.00,0.0,WeatherDisplay:10.37,2013-02-08 06:30:00,
2013-02-08 00:35:00,33.1,30.5,30.10,NNW,342,3.5,5.6,90,0.00,CLR,,0.00,0.0,WeatherDisplay:10.37,2013-02-08 06:35:00,
2013-02-08 00:40:00,33.1,30.5,30.10,NNW,342,3.5,5.6,90,0.00,CLR,,0.00,0.0,WeatherDisplay:10.37,2013-02-08 06:40:00,
2013-02-08 00:45:00,33.1,30.5,30.10,NNW,342,3.5,5.6,90,0.00,CLR,,0.00,0.0,WeatherDisplay:10.37,2013-02-08 06:45:00,
2013-02-08 00:50:00,33.0,30.1,30.10,North,355,13.8,13.8,89,0.00,CLR,,0.72,0.0,WeatherDisplay:10.37,2013-02-08 06:50:00,
2013-02-08 00:55:00,33.0,30.1,30.10,North,355,13.8,13.8,89,0.00,CLR,,0.72,0.0,WeatherDisplay:10.37,2013-02-08 06:55:00,
2013-02-08 01:00:00,33.0,30.4,30.10,NW,311,3.5,6.9,90,0.00,CLR,,0.72,0.0,WeatherDisplay:10.37,2013-02-08 07:00:00,
2013-02-08 01:05:00,33.0,30.1,30.10,North,355,13.8,13.8,89,0.00,CLR,,0.72,0.0,WeatherDisplay:10.37,2013-02-08 07:05:00,
2013-02-08 01:10:00,33.1,30.5,30.10,NNW,342,3.5,5.6,90,0.00,CLR,,0.00,0.0,WeatherDisplay:10.37,2013-02-08 07:10:00,
2013-02-08 01:15:00,33.1,30.5,30.10,NNW,342,3.5,5.6,90,0.00,CLR,,0.00,0.0,WeatherDisplay:10.37,2013-02-08 07:15:00,
2013-02-08 01:20:00,33.1,30.5,30.10,NNW,342,3.5,5.6,90,0.00,CLR,,0.00,0.0,WeatherDisplay:10.37,2013-02-08 07:20:00,
2013-02-08 01:25:00,33.1,30.5,30.10,NNW,342,3.5,5.6,90,0.00,CLR,,0.00,0.0,WeatherDisplay:10.37,2013-02-08 07:25:00,
2013-02-08 01:30:00,33.0,30.1,30.10,North,355,13.8,13.8,89,0.00,CLR,,0.72,0.0,WeatherDisplay:10.37,2013-02-08 07:30:00,
2013-02-08 01:35:00,33.0,30.4,30.10,NW,311,3.5,6.9,90,0.00,CLR,,0.72,0.0,WeatherDisplay:10.37,2013-02-08 07:35:00,
2013-02-08 01:40:00,32.8,29.6,30.13,North,10,15.0,15.0,88,0.00,CLR,,0.00,0.0,WeatherDisplay:10.37,2013-02-08 07:40:00,
2013-02-08 01:45:00,33.0,30.1,30.10,NNW,342,13.8,14.0,89,0.00,CLR,,0.72,0.0,WeatherDisplay:10.37,2013-02-08 07:45:00,
2013-02-08 01:50:00,33.1,30.5,30.10,NNW,342,3.5,5.6,90,0.00,CLR,,0.00,0.0,WeatherDisplay:10.37,2013-02-08 07:50:00,
2013-02-08 01:55:00,32.7,29.5,30.14,NNW,330,3.5,3.5,88,0.00,CLR,,0.00,0.0,WeatherDisplay:10.37,2013-02-08 07:55:00,
2013-02-08 02:00:00,32.6,29.4,30.14,NNW,346,6.9,6.9,88,0.00,CLR,,0.00,0.0,WeatherDisplay:10.37,2013-02-08 08:00:00,
2013-02-08 02:05:00,32.6,29.4,30.15,North,351,10.4,10.4,88,0.00,CLR,,0.00,0.0,WeatherDisplay:10.37,2013-02-08 08:05:00,
2013-02-08 02:10:00,33.0,30.4,30.10,NW,311,3.5,6.9,90,0.00,CLR,,0.72,0.0,WeatherDisplay:10.37,2013-02-08 08:10:00,
2013-02-08 02:15:00,32.5,29.1,30.15,North,360,6.9,6.9,87,0.00,CLR,,0.72,0.0,WeatherDisplay:10.37,2013-02-08 08:15:00,
2013-02-08 02:20:00,32.4,29.0,30.15,North,11,10.4,10.4,87,0.00,CLR,,0.72,0.0,WeatherDisplay:10.37,2013-02-08 08:20:00,
2013-02-08 02:25:00,32.5,29.1,30.15,NW,326,3.5,6.6,87,0.00,CLR,,0.00,0.0,WeatherDisplay:10.37,2013-02-08 08:25:00,
2013-02-08 02:30:00,32.7,29.5,30.14,NNW,330,6.9,6.9,88,0.00,CLR,,0.72,0.0,WeatherDisplay:10.37,2013-02-08 08:30:00,
2013-02-08 02:35:00,32.7,29.5,30.14,NNW,330,6.9,6.9,88,0.00,CLR,,0.72,0.0,WeatherDisplay:10.37,2013-02-08 08:35:00,
2013-02-08 02:40:00,32.3,28.9,30.15,NNW,340,13.8,13.8,87,0.00,CLR,,0.72,0.0,WeatherDisplay:10.37,2013-02-08 08:40:00,
2013-02-08 02:45:00,32.5,29.1,30.15,NW,326,3.5,6.6,87,0.00,CLR,,0.00,0.0,WeatherDisplay:10.37,2013-02-08 08:45:00,
2013-02-08 02:50:00,32.7,29.5,30.14,NNW,345,3.5,6.1,88,0.00,CLR,,0.00,0.0,WeatherDisplay:10.37,2013-02-08 08:50:00,
2013-02-08 02:55:00,32.2,28.8,30.16,NNW,336,15.0,15.0,87,0.00,CLR,,0.72,0.0,WeatherDisplay:10.37,2013-02-08 08:55:00,
2013-02-08 03:00:00,32.7,29.5,30.14,NNW,330,6.9,6.9,88,0.00,CLR,,0.72,0.0,WeatherDisplay:10.37,2013-02-08 09:00:00,
2013-02-08 03:05:00,32.7,29.5,30.14,NNW,330,6.9,6.9,88,0.00,CLR,,0.72,0.0,WeatherDisplay:10.37,2013-02-08 09:05:00,
2013-02-08 03:10:00,32.5,29.1,30.15,NW,326,3.5,6.6,87,0.00,CLR,,0.00,0.0,WeatherDisplay:10.37,2013-02-08 09:10:00,
2013-02-08 03:15:00,32.0,28.6,30.17,NNE,17,2.3,3.0,87,0.00,CLR,,0.72,0.0,WeatherDisplay:10.37,2013-02-08 09:15:00,
2013-02-08 03:20:00,32.5,29.1,30.15,NW,326,3.5,6.6,87,0.00,CLR,,0.00,0.0,WeatherDisplay:10.37,2013-02-08 09:20:00,
2013-02-08 03:25:00,31.9,28.5,30.18,North,360,1.2,1.2,87,0.00,CLR,,0.72,0.0,WeatherDisplay:10.37,2013-02-08 09:25:00,
2013-02-08 03:30:00,32.0,28.6,30.17,NE,40,1.2,2.2,87,0.00,CLR,,0.72,0.0,WeatherDisplay:10.37,2013-02-08 09:30:00,
2013-02-08 03:35:00,32.5,29.1,30.15,NW,326,3.5,6.6,87,0.00,CLR,,0.00,0.0,WeatherDisplay:10.37,2013-02-08 09:35:00,
2013-02-08 03:40:00,32.7,29.5,30.14,NNW,345,3.5,6.1,88,0.00,CLR,,0.00,0.0,WeatherDisplay:10.37,2013-02-08 09:40:00,
2013-02-08 03:45:00,31.0,27.0,30.19,NNE,15,6.9,6.9,85,0.00,CLR,,0.72,0.0,WeatherDisplay:10.37,2013-02-08 09:45:00,
2013-02-08 03:50:00,32.7,29.5,30.14,NNW,345,3.5,6.1,88,0.00,CLR,,0.00,0.0,WeatherDisplay:10.37,2013-02-08 09:50:00,
2013-02-08 03:55:00,32.5,29.1,30.15,NW,326,3.5,6.6,87,0.00,CLR,,0.00,0.0,WeatherDisplay:10.37,2013-02-08 09:55:00,
2013-02-08 04:00:00,32.5,29.1,30.15,NW,326,3.5,6.6,87,0.00,CLR,,0.00,0.0,WeatherDisplay:10.37,2013-02-08 10:00:00,
2013-02-08 04:05:00,32.7,29.5,30.14,NNW,345,3.5,6.1,88,0.00,CLR,,0.00,0.0,WeatherDisplay:10.37,2013-02-08 10:05:00,
2013-02-08 04:10:00,32.5,29.1,30.15,NW,326,3.5,6.6,87,0.00,CLR,,0.00,0.0,WeatherDisplay:10.37,2013-02-08 10:10:00,
2013-02-08 04:15:00,32.7,29.5,30.14,NNW,345,3.5,6.1,88,0.00,CLR,,0.00,0.0,WeatherDisplay:10.37,2013-02-08 10:15:00,
2013-02-08 04:20:00,32.5,29.1,30.15,NW,326,3.5,6.6,87,0.00,CLR,,0.00,0.0,WeatherDisplay:10.37,2013-02-08 10:20:00,
2013-02-08 04:25:00,30.8,26.8,30.20,North,360,12.7,12.7,85,0.00,CLR,,0.72,0.0,WeatherDisplay:10.37,2013-02-08 10:25:00,
2013-02-08 04:29:00,30.4,26.4,30.22,NNW,327,9.2,9.2,85,0.00,CLR,,0.00,0.0,WeatherDisplay:10.37,2013-02-08 10:29:00,
2013-02-08 04:34:00,32.5,29.1,30.15,NW,326,3.5,6.6,87,0.00,CLR,,0.00,0.0,WeatherDisplay:10.37,2013-02-08 10:34:00,
2013-02-08 04:39:00,30.3,26.3,30.23,North,360,6.9,6.9,85,0.00,CLR,,0.00,0.0,WeatherDisplay:10.37,2013-02-08 10:39:00,
2013-02-08 04:44:00,30.8,26.8,30.20,North,360,12.7,12.7,85,0.00,CLR,,0.72,0.0,WeatherDisplay:10.37,2013-02-08 10:44:00,
2013-02-08 04:49:00,30.4,26.4,30.22,NNE,19,1.2,2.6,85,0.00,CLR,,0.72,0.0,WeatherDisplay:10.37,2013-02-08 10:49:00,
2013-02-08 04:54:00,30.1,26.1,30.24,NNE,15,6.0,6.0,85,0.00,CLR,,0.00,0.0,WeatherDisplay:10.37,2013-02-08 10:54:00,
2013-02-08 04:59:00,30.1,26.1,30.24,North,355,2.3,2.3,85,0.00,CLR,,0.00,0.0,WeatherDisplay:10.37,2013-02-08 10:59:00,
2013-02-08 05:04:00,32.5,29.1,30.15,NW,326,3.5,6.6,87,0.00,CLR,,0.00,0.0,WeatherDisplay:10.37,2013-02-08 11:04:00,
2013-02-08 05:09:00,32.5,29.1,30.15,NW,326,3.5,6.6,87,0.00,CLR,,0.00,0.0,WeatherDisplay:10.37,2013-02-08 11:09:00,
2013-02-08 05:14:00,30.1,26.1,30.24,North,360,0.0,1.8,85,0.00,CLR,,0.00,0.0,WeatherDisplay:10.37,2013-02-08 11:14:00,
2013-02-08 05:19:00,30.1,26.1,30.25,North,355,0.0,0.3,85,0.00,CLR,,0.72,0.0,WeatherDisplay:10.37,2013-02-08 11:19:00,
2013-02-08 05:24:00,30.1,26.1,30.24,North,360,0.0,1.8,85,0.00,CLR,,0.00,0.0,WeatherDisplay:10.37,2013-02-08 11:24:00,
2013-02-08 05:29:00,30.1,26.1,30.26,NNE,20,8.1,8.1,85,0.00,CLR,,0.72,0.0,WeatherDisplay:10.37,2013-02-08 11:29:00,
2013-02-08 05:34:00,30.4,26.4,30.22,NNE,19,1.2,2.6,85,0.00,CLR,,0.72,0.0,WeatherDisplay:10.37,2013-02-08 11:34:00,
2013-02-08 05:39:00,32.5,29.1,30.15,NW,326,3.5,6.6,87,0.00,CLR,,0.00,0.0,WeatherDisplay:10.37,2013-02-08 11:39:00,
2013-02-08 05:44:00,30.0,26.3,30.26,North,351,1.2,1.8,86,0.00,CLR,,0.00,0.0,WeatherDisplay:10.37,2013-02-08 11:44:00,
2013-02-08 05:49:00,30.4,26.4,30.22,NNE,19,1.2,2.6,85,0.00,CLR,,0.72,0.0,WeatherDisplay:10.37,2013-02-08 11:49:00,
2013-02-08 05:54:00,32.5,29.1,30.15,NW,326,3.5,6.6,87,0.00,CLR,,0.00,0.0,WeatherDisplay:10.37,2013-02-08 11:54:00,
2013-02-08 05:59:00,29.8,25.8,30.27,North,5,4.6,4.6,85,0.00,CLR,,0.00,0.0,WeatherDisplay:10.37,2013-02-08 11:59:00,
2013-02-08 06:04:00,32.5,29.1,30.15,NW,326,3.5,6.6,87,0.00,CLR,,0.00,0.0,WeatherDisplay:10.37,2013-02-08 12:04:00,
2013-02-08 06:09:00,29.8,25.8,30.27,North,351,4.6,4.6,85,0.00,CLR,,0.00,0.0,WeatherDisplay:10.37,2013-02-08 12:09:00,
2013-02-08 06:14:00,30.0,26.3,30.26,NNE,22,2.3,3.4,86,0.00,CLR,,0.72,0.0,WeatherDisplay:10.37,2013-02-08 12:14:00,
2013-02-08 06:19:00,32.5,29.1,30.15,NW,326,3.5,6.6,87,0.00,CLR,,0.00,0.0,WeatherDisplay:10.37,2013-02-08 12:19:00,
2013-02-08 06:24:00,30.4,26.4,30.22,NNE,19,1.2,2.6,85,0.00,CLR,,0.72,0.0,WeatherDisplay:10.37,2013-02-08 12:24:00,
2013-02-08 06:29:00,32.5,29.1,30.15,NW,326,3.5,6.6,87,0.00,CLR,,0.00,0.0,WeatherDisplay:10.37,2013-02-08 12:29:00,
2013-02-08 06:34:00,30.4,26.4,30.22,NNE,19,1.2,2.6,85,0.00,CLR,,0.72,0.0,WeatherDisplay:10.37,2013-02-08 12:34:00,
2013-02-08 06:39:00,29.0,24.8,30.28,NE,42,4.6,4.6,84,0.00,CLR,,0.00,0.0,WeatherDisplay:10.37,2013-02-08 12:39:00,
2013-02-08 06:44:00,32.5,29.1,30.15,NW,326,3.5,6.6,87,0.00,CLR,,0.00,0.0,WeatherDisplay:10.37,2013-02-08 12:44:00,
2013-02-08 06:49:00,30.0,26.3,30.26,NNE,22,2.3,3.4,86,0.00,CLR,,0.72,0.0,WeatherDisplay:10.37,2013-02-08 12:49:00,
2013-02-08 06:54:00,32.5,29.1,30.15,NW,326,3.5,6.6,87,0.00,CLR,,0.00,0.0,WeatherDisplay:10.37,2013-02-08 12:54:00,
2013-02-08 06:59:00,32.5,29.1,30.15,NW,326,3.5,6.6,87,0.00,CLR,,0.00,0.0,WeatherDisplay:10.37,2013-02-08 12:59:00,
2013-02-08 07:04:00,30.0,26.3,30.26,NNE,22,2.3,3.4,86,0.00,OVC,,0.72,0.0,WeatherDisplay:10.37,2013-02-08 13:04:00,
2013-02-08 07:09:00,30.0,26.3,30.26,NNE,22,2.3,3.4,86,0.00,OVC,,0.72,0.0,WeatherDisplay:10.37,2013-02-08 13:09:00,
2013-02-08 07:14:00,32.5,29.1,30.15,NW,326,3.5,6.6,87,0.00,OVC,,0.00,0.0,WeatherDisplay:10.37,2013-02-08 13:14:00,
2013-02-08 07:19:00,30.4,26.4,30.22,NNE,19,1.2,2.6,85,0.00,OVC,,0.72,0.0,WeatherDisplay:10.37,2013-02-08 13:19:00,
2013-02-08 07:24:00,32.5,29.1,30.15,NW,326,3.5,6.6,87,0.00,OVC,,0.00,0.0,WeatherDisplay:10.37,2013-02-08 13:24:00,
2013-02-08 07:29:00,32.5,29.1,30.15,NW,326,3.5,6.6,87,0.00,OVC,,0.00,0.0,WeatherDisplay:10.37,2013-02-08 13:29:00,
2013-02-08 07:34:00,30.0,26.3,30.26,NNE,22,2.3,3.4,86,0.00,OVC,,0.72,0.0,WeatherDisplay:10.37,2013-02-08 13:34:00,
2013-02-08 07:39:00,30.0,26.3,30.26,NNE,22,2.3,3.4,86,0.00,OVC,,0.72,0.0,WeatherDisplay:10.37,2013-02-08 13:39:00,
2013-02-08 07:44:00,30.4,26.4,30.22,NNE,19,1.2,2.6,85,0.00,OVC,,0.72,0.0,WeatherDisplay:10.37,2013-02-08 13:44:00,
2013-02-08 07:49:00,32.5,29.1,30.15,NW,326,3.5,6.6,87,0.00,OVC,,0.00,0.0,WeatherDisplay:10.37,2013-02-08 13:49:00,
2013-02-08 07:54:00,30.0,26.3,30.26,NNE,22,2.3,3.4,86,0.00,OVC,,0.72,0.0,WeatherDisplay:10.37,2013-02-08 13:54:00,
2013-02-08 07:59:00,30.4,26.4,30.22,NNE,19,1.2,2.6,85,0.00,OVC,,0.72,0.0,WeatherDisplay:10.37,2013-02-08 13:59:00,
2013-02-08 08:04:00,32.5,29.1,30.15,NW,326,3.5,6.6,87,0.00,OVC,,0.00,0.0,WeatherDisplay:10.37,2013-02-08 14:04:00,
2013-02-08 08:09:00,30.0,26.3,30.26,NNE,22,2.3,3.4,86,0.00,OVC,,0.72,0.0,WeatherDisplay:10.37,2013-02-08 14:09:00,
2013-02-08 08:14:00,30.0,26.3,30.26,NNE,22,2.3,3.4,86,0.00,OVC,,0.72,0.0,WeatherDisplay:10.37,2013-02-08 14:14:00,
2013-02-08 08:19:00,32.5,29.1,30.15,NW,326,3.5,6.6,87,0.00,OVC,,0.00,0.0,WeatherDisplay:10.37,2013-02-08 14:19:00,
2013-02-08 08:24:00,28.3,24.1,30.34,NNW,327,9.2,9.2,84,0.00,OVC,,0.72,58.0,WeatherDisplay:10.37,2013-02-08 14:24:00,
2013-02-08 08:29:00,28.2,24.0,30.33,North,9,5.8,5.8,84,0.00,OVC,,0.00,47.0,WeatherDisplay:10.37,2013-02-08 14:29:00,
2013-02-08 08:34:00,32.5,29.1,30.15,NW,326,3.5,6.6,87,0.00,OVC,,0.00,0.0,WeatherDisplay:10.37,2013-02-08 14:34:00,
2013-02-08 08:39:00,30.0,26.3,30.26,NNE,22,2.3,3.4,86,0.00,OVC,,0.72,0.0,WeatherDisplay:10.37,2013-02-08 14:39:00,
2013-02-08 08:44:00,28.5,24.0,30.34,NNE,22,5.8,5.8,83,0.00,OVC,,0.72,84.0,WeatherDisplay:10.37,2013-02-08 14:44:00,
2013-02-08 08:49:00,28.6,24.1,30.35,NNE,30,6.9,6.9,83,0.00,OVC,,0.72,83.0,WeatherDisplay:10.37,2013-02-08 14:49:00,
2013-02-08 08:54:00,30.0,26.3,30.26,NNE,22,2.3,3.4,86,0.00,OVC,,0.72,0.0,WeatherDisplay:10.37,2013-02-08 14:54:00,
2013-02-08 08:59:00,28.2,24.0,30.33,North,9,5.8,5.8,84,0.00,OVC,,0.00,47.0,WeatherDisplay:10.37,2013-02-08 14:59:00,
2013-02-08 09:04:00,30.0,26.3,30.26,NNE,22,2.3,3.4,86,0.00,OVC,,0.72,0.0,WeatherDisplay:10.37,2013-02-08 15:04:00,
2013-02-08 09:09:00,30.0,26.3,30.26,NNE,22,2.3,3.4,86,0.00,OVC,,0.72,0.0,WeatherDisplay:10.37,2013-02-08 15:09:00,
2013-02-08 09:14:00,32.5,29.1,30.15,NW,326,3.5,6.6,87,0.00,OVC,,0.00,0.0,WeatherDisplay:10.37,2013-02-08 15:14:00,
2013-02-08 09:19:00,28.2,24.0,30.33,North,9,5.8,5.8,84,0.00,OVC,,0.00,47.0,WeatherDisplay:10.37,2013-02-08 15:19:00,
2013-02-08 09:24:00,28.9,24.7,30.35,North,355,7.0,7.0,84,0.00,OVC,,0.72,142.0,WeatherDisplay:10.37,2013-02-08 15:24:00,
2013-02-08 09:29:00,32.5,29.1,30.15,NW,326,3.5,6.6,87,0.00,OVC,,0.00,0.0,WeatherDisplay:10.37,2013-02-08 15:29:00,
2013-02-08 09:34:00,28.2,24.0,30.33,North,9,5.8,5.8,84,0.00,OVC,,0.00,47.0,WeatherDisplay:10.37,2013-02-08 15:34:00,
2013-02-08 09:39:00,32.5,29.1,30.15,NW,326,3.5,6.6,87,0.00,OVC,,0.00,0.0,WeatherDisplay:10.37,2013-02-08 15:39:00,
2013-02-08 09:44:00,28.8,24.3,30.36,NE,51,11.5,11.5,83,0.00,OVC,,0.72,153.0,WeatherDisplay:10.37,2013-02-08 15:44:00,
2013-02-08 09:49:00,32.5,29.1,30.15,NW,326,3.5,6.6,87,0.00,OVC,,0.00,0.0,WeatherDisplay:10.37,2013-02-08 15:49:00,
2013-02-08 09:54:00,32.5,29.1,30.15,NW,326,3.5,6.6,87,0.00,OVC,,0.00,0.0,WeatherDisplay:10.37,2013-02-08 15:54:00,
2013-02-08 09:59:00,32.5,29.1,30.15,NW,326,3.5,6.6,87,0.00,OVC,,0.00,0.0,WeatherDisplay:10.37,2013-02-08 15:59:00,
2013-02-08 10:04:00,28.9,24.4,30.36,NE,40,9.2,9.2,83,0.00,OVC,,0.72,167.0,WeatherDisplay:10.37,2013-02-08 16:04:00,
2013-02-08 10:09:00,28.9,24.4,30.36,NE,40,3.5,3.5,83,0.00,OVC,,0.72,167.0,WeatherDisplay:10.37,2013-02-08 16:09:00,
2013-02-08 10:14:00,32.5,29.1,30.15,NW,326,3.5,6.6,87,0.00,OVC,,0.00,0.0,WeatherDisplay:10.37,2013-02-08 16:14:00,
2013-02-08 10:19:00,30.0,26.3,30.26,NNE,22,2.3,3.4,86,0.00,OVC,,0.72,0.0,WeatherDisplay:10.37,2013-02-08 16:19:00,
2013-02-08 10:24:00,28.8,24.0,30.37,ENE,75,6.9,6.9,82,0.00,OVC,,0.00,139.0,WeatherDisplay:10.37,2013-02-08 16:24:00,
2013-02-08 10:29:00,28.9,24.4,30.36,NE,40,3.5,3.5,83,0.00,OVC,,0.72,167.0,WeatherDisplay:10.37,2013-02-08 16:29:00,
2013-02-08 10:34:00,28.9,24.4,30.36,NE,40,3.5,3.5,83,0.00,OVC,,0.72,167.0,WeatherDisplay:10.37,2013-02-08 16:34:00,
2013-02-08 10:39:00,32.5,29.1,30.15,NW,326,3.5,6.6,87,0.00,OVC,,0.00,0.0,WeatherDisplay:10.37,2013-02-08 16:39:00,
2013-02-08 10:44:00,28.9,24.4,30.36,NE,40,3.5,3.5,83,0.00,OVC,,0.72,167.0,WeatherDisplay:10.37,2013-02-08 16:44:00,
2013-02-08 10:49:00,30.0,26.3,30.26,NNE,22,2.3,3.4,86,0.00,OVC,,0.72,0.0,WeatherDisplay:10.37,2013-02-08 16:49:00,
2013-02-08 10:54:00,28.9,24.4,30.36,NE,40,3.5,3.5,83,0.00,OVC,,0.72,167.0,WeatherDisplay:10.37,2013-02-08 16:54:00,
2013-02-08 10:59:00,32.5,29.1,30.15,NW,326,3.5,6.6,87,0.00,OVC,,0.00,0.0,WeatherDisplay:10.37,2013-02-08 16:59:00,
2013-02-08 11:04:00,28.9,24.4,30.36,NE,40,3.5,3.5,83,0.00,OVC,,0.72,167.0,WeatherDisplay:10.37,2013-02-08 17:04:00,
2013-02-08 11:09:00,28.9,24.4,30.36,NE,40,3.5,3.5,83,0.00,OVC,,0.72,167.0,WeatherDisplay:10.37,2013-02-08 17:09:00,
2013-02-08 11:13:00,29.7,24.6,30.39,North,349,3.5,3.5,81,0.00,OVC,,0.72,179.0,WeatherDisplay:10.37,2013-02-08 17:13:00,
2013-02-08 11:18:00,32.5,29.1,30.15,NW,326,3.5,6.6,87,0.00,OVC,,0.00,0.0,WeatherDisplay:10.37,2013-02-08 17:18:00,
2013-02-08 11:23:00,32.5,29.1,30.15,NW,326,3.5,6.6,87,0.00,OVC,,0.00,0.0,WeatherDisplay:10.37,2013-02-08 17:23:00,
2013-02-08 11:28:00,32.5,29.1,30.15,NW,326,3.5,6.6,87,0.00,OVC,,0.00,0.0,WeatherDisplay:10.37,2013-02-08 17:28:00,
2013-02-08 11:33:00,29.6,24.8,30.39,North,349,0.0,0.7,82,0.00,OVC,,0.00,185.0,WeatherDisplay:10.37,2013-02-08 17:33:00,
2013-02-08 11:38:00,28.9,24.4,30.36,NE,40,3.5,3.5,83,0.00,OVC,,0.72,167.0,WeatherDisplay:10.37,2013-02-08 17:38:00,
2013-02-08 11:43:00,28.9,24.4,30.36,NE,40,3.5,3.5,83,0.00,OVC,,0.72,167.0,WeatherDisplay:10.37,2013-02-08 17:43:00,
2013-02-08 11:48:00,28.9,24.4,30.36,NE,40,3.5,3.5,83,0.00,OVC,,0.72,167.0,WeatherDisplay:10.37,2013-02-08 17:48:00,
2013-02-08 11:53:00,29.6,24.8,30.39,North,349,0.0,0.7,82,0.00,OVC,,0.00,185.0,WeatherDisplay:10.37,2013-02-08 17:53:00,
2013-02-08 11:58:00,29.6,24.8,30.39,North,349,0.0,0.7,82,0.00,OVC,,0.00,185.0,WeatherDisplay:10.37,2013-02-08 17:58:00,
2013-02-08 12:03:00,32.5,29.1,30.15,NW,326,3.5,6.6,87,0.00,OVC,,0.00,0.0,WeatherDisplay:10.37,2013-02-08 18:03:00,
2013-02-08 12:08:00,28.9,24.4,30.36,NE,40,3.5,3.5,83,0.00,OVC,,0.72,167.0,WeatherDisplay:10.37,2013-02-08 18:08:00,
2013-02-08 12:13:00,28.9,24.4,30.36,NE,40,3.5,3.5,83,0.00,OVC,,0.72,167.0,WeatherDisplay:10.37,2013-02-08 18:13:00,
2013-02-08 12:18:00,30.7,25.6,30.37,North,355,0.0,0.0,81,0.00,OVC,,0.00,179.0,WeatherDisplay:10.37,2013-02-08 18:18:00,
2013-02-08 12:23:00,32.5,29.1,30.15,NW,326,3.5,6.6,87,0.00,OVC,,0.00,0.0,WeatherDisplay:10.37,2013-02-08 18:23:00,
2013-02-08 12:28:00,30.8,25.7,30.37,NNE,32,3.5,3.5,81,0.00,OVC,,0.00,171.0,WeatherDisplay:10.37,2013-02-08 18:28:00,
2013-02-08 12:33:00,28.9,24.4,30.36,NE,40,3.5,3.5,83,0.00,OVC,,0.72,167.0,WeatherDisplay:10.37,2013-02-08 18:33:00,
2013-02-08 12:38:00,30.6,25.5,30.38,NNW,329,0.0,0.4,81,0.00,OVC,,0.72,181.0,WeatherDisplay:10.37,2013-02-08 18:38:00,
2013-02-08 12:43:00,28.9,24.4,30.36,NE,40,3.5,3.5,83,0.00,OVC,,0.72,167.0,WeatherDisplay:10.37,2013-02-08 18:43:00,
2013-02-08 12:48:00,32.5,29.1,30.15,NW,326,3.5,6.6,87,0.00,OVC,,0.00,0.0,WeatherDisplay:10.37,2013-02-08 18:48:00,
2013-02-08 12:53:00,28.9,24.4,30.36,NE,40,3.5,3.5,83,0.00,OVC,,0.72,167.0,WeatherDisplay:10.37,2013-02-08 18:53:00,
2013-02-08 12:58:00,32.5,29.1,30.15,NW,326,3.5,6.6,87,0.00,OVC,,0.00,0.0,WeatherDisplay:10.37,2013-02-08 18:58:00,
2013-02-08 13:03:00,30.6,25.5,30.38,NNW,329,0.0,0.4,81,0.00,OVC,,0.72,181.0,WeatherDisplay:10.37,2013-02-08 19:03:00,
2013-02-08 13:08:00,28.9,24.4,30.36,NE,40,3.5,3.5,83,0.00,OVC,,0.72,167.0,WeatherDisplay:10.37,2013-02-08 19:08:00,
2013-02-08 13:13:00,28.9,24.4,30.36,NE,40,3.5,3.5,83,0.00,OVC,,0.72,167.0,WeatherDisplay:10.37,2013-02-08 19:13:00,
2013-02-08 13:18:00,30.9,25.5,30.37,NNE,28,3.5,3.5,80,0.00,OVC,,0.00,206.0,WeatherDisplay:10.37,2013-02-08 19:18:00,
2013-02-08 13:23:00,30.9,25.8,30.37,NE,36,0.0,0.0,81,0.00,OVC,,0.00,195.0,WeatherDisplay:10.37,2013-02-08 19:23:00,
2013-02-08 13:28:00,28.9,24.4,30.36,NE,40,3.5,3.5,83,0.00,OVC,,0.72,167.0,WeatherDisplay:10.37,2013-02-08 19:28:00,
2013-02-08 13:33:00,28.9,24.4,30.36,NE,40,3.5,3.5,83,0.00,OVC,,0.72,167.0,WeatherDisplay:10.37,2013-02-08 19:33:00,
2013-02-08 13:38:00,30.6,25.5,30.38,NNW,329,0.0,0.4,81,0.00,OVC,,0.72,181.0,WeatherDisplay:10.37,2013-02-08 19:38:00,
2013-02-08 13:43:00,30.9,25.8,30.38,NE,36,1.2,1.7,81,0.00,OVC,,0.00,197.0,WeatherDisplay:10.37,2013-02-08 19:43:00,
2013-02-08 13:48:00,30.9,25.8,30.38,NE,36,1.2,1.7,81,0.00,OVC,,0.00,197.0,WeatherDisplay:10.37,2013-02-08 19:48:00,
2013-02-08 13:53:00,30.9,25.8,30.38,NE,36,1.2,1.7,81,0.00,OVC,,0.00,197.0,WeatherDisplay:10.37,2013-02-08 19:53:00,
2013-02-08 13:58:00,30.9,25.8,30.38,NE,36,1.2,1.7,81,0.00,OVC,,0.00,197.0,WeatherDisplay:10.37,2013-02-08 19:58:00,
2013-02-08 14:03:00,28.9,24.4,30.36,NE,40,3.5,3.5,83,0.00,OVC,,0.72,167.0,WeatherDisplay:10.37,2013-02-08 20:03:00,
2013-02-08 14:08:00,28.9,24.4,30.36,NE,40,3.5,3.5,83,0.00,OVC,,0.72,167.0,WeatherDisplay:10.37,2013-02-08 20:08:00,
2013-02-08 14:13:00,31.2,25.7,30.37,North,355,0.0,0.0,80,0.00,OVC,,0.00,172.0,WeatherDisplay:10.37,2013-02-08 20:13:00,
2013-02-08 14:18:00,30.9,25.8,30.38,NE,36,1.2,1.7,81,0.00,OVC,,0.00,197.0,WeatherDisplay:10.37,2013-02-08 20:18:00,
2013-02-08 14:23:00,31.2,25.7,30.37,North,355,0.0,0.0,80,0.00,OVC,,0.00,172.0,WeatherDisplay:10.37,2013-02-08 20:23:00,
2013-02-08 14:28:00,30.9,25.8,30.38,NE,36,1.2,1.7,81,0.00,OVC,,0.00,197.0,WeatherDisplay:10.37,2013-02-08 20:28:00,
2013-02-08 14:33:00,30.9,25.8,30.38,NE,36,1.2,1.7,81,0.00,OVC,,0.00,197.0,WeatherDisplay:10.37,2013-02-08 20:33:00,
2013-02-08 14:38:00,31.2,25.7,30.37,North,355,0.0,0.0,80,0.00,OVC,,0.00,172.0,WeatherDisplay:10.37,2013-02-08 20:38:00,
2013-02-08 14:43:00,30.9,25.8,30.38,NE,36,1.2,1.7,81,0.00,OVC,,0.00,197.0,WeatherDisplay:10.37,2013-02-08 20:43:00,
2013-02-08 14:48:00,28.9,24.4,30.36,NE,40,3.5,3.5,83,0.00,OVC,,0.72,167.0,WeatherDisplay:10.37,2013-02-08 20:48:00,
2013-02-08 14:53:00,30.9,25.8,30.38,NE,36,1.2,1.7,81,0.00,BKN,,0.00,197.0,WeatherDisplay:10.37,2013-02-08 20:53:00,
2013-02-08 14:58:00,31.8,26.0,30.38,North,355,0.0,0.0,79,0.00,OVC,,0.72,121.0,WeatherDisplay:10.37,2013-02-08 20:58:00,
2013-02-08 15:03:00,31.8,26.0,30.38,North,355,0.0,0.0,79,0.00,OVC,,0.72,121.0,WeatherDisplay:10.37,2013-02-08 21:03:00,
2013-02-08 15:08:00,31.8,26.0,30.38,North,355,0.0,0.0,79,0.00,OVC,,0.72,121.0,WeatherDisplay:10.37,2013-02-08 21:08:00,
2013-02-08 15:13:00,28.9,24.4,30.36,NE,40,3.5,3.5,83,0.00,OVC,,0.72,167.0,WeatherDisplay:10.37,2013-02-08 21:13:00,
2013-02-08 15:18:00,28.9,24.4,30.36,NE,40,3.5,3.5,83,0.00,BKN,,0.72,167.0,WeatherDisplay:10.37,2013-02-08 21:18:00,
2013-02-08 15:23:00,28.9,24.4,30.36,NE,40,3.5,3.5,83,0.00,BKN,,0.72,167.0,WeatherDisplay:10.37,2013-02-08 21:23:00,
2013-02-08 15:28:00,28.9,24.4,30.36,NE,40,3.5,3.5,83,0.00,BKN,,0.72,167.0,WeatherDisplay:10.37,2013-02-08 21:28:00,
2013-02-08 15:33:00,28.9,24.4,30.36,NE,40,3.5,3.5,83,0.00,BKN,,0.72,167.0,WeatherDisplay:10.37,2013-02-08 21:33:00,
2013-02-08 15:38:00,31.1,25.3,30.38,North,355,0.0,0.0,79,0.00,BKN,,0.72,155.0,WeatherDisplay:10.37,2013-02-08 21:38:00,
2013-02-08 15:43:00,28.9,24.4,30.36,NE,40,3.5,3.5,83,0.00,BKN,,0.72,167.0,WeatherDisplay:10.37,2013-02-08 21:43:00,
2013-02-08 15:48:00,28.9,24.4,30.36,NE,40,3.5,3.5,83,0.00,BKN,,0.72,167.0,WeatherDisplay:10.37,2013-02-08 21:48:00,
2013-02-08 15:53:00,30.9,25.8,30.38,NE,36,1.2,1.7,81,0.00,SCT,,0.00,197.0,WeatherDisplay:10.37,2013-02-08 21:53:00,
2013-02-08 15:58:00,31.2,25.4,30.38,North,355,1.2,1.7,79,0.00,BKN,,0.00,128.0,WeatherDisplay:10.37,2013-02-08 21:58:00,
2013-02-08 16:03:00,31.2,25.4,30.38,North,355,1.2,1.7,79,0.00,BKN,,0.00,128.0,WeatherDisplay:10.37,2013-02-08 22:03:00,
2013-02-08 16:08:00,28.9,24.4,30.36,NE,40,3.5,3.5,83,0.00,SCT,,0.72,167.0,WeatherDisplay:10.37,2013-02-08 22:08:00,
2013-02-08 16:13:00,31.4,25.6,30.38,North,355,0.0,0.0,79,0.00,OVC,,0.72,97.0,WeatherDisplay:10.37,2013-02-08 22:13:00,
2013-02-08 16:18:00,31.4,25.6,30.39,North,355,1.0,1.0,79,0.00,OVC,,0.72,65.0,WeatherDisplay:10.37,2013-02-08 22:18:00,
2013-02-08 16:23:00,28.9,24.4,30.36,NE,40,3.5,3.5,83,0.00,SCT,,0.72,167.0,WeatherDisplay:10.37,2013-02-08 22:23:00,
2013-02-08 16:28:00,31.2,25.4,30.38,North,355,1.2,1.7,79,0.00,SCT,,0.00,128.0,WeatherDisplay:10.37,2013-02-08 22:28:00,
2013-02-08 16:33:00,31.1,25.0,30.39,North,355,3.5,3.5,78,0.00,OVC,,0.72,51.0,WeatherDisplay:10.37,2013-02-08 22:33:00,
2013-02-08 16:38:00,31.0,25.2,30.39,North,355,0.0,0.0,79,0.00,OVC,,0.72,40.0,WeatherDisplay:10.37,2013-02-08 22:38:00,
2013-02-08 16:43:00,30.9,25.2,30.39,North,355,0.0,0.0,79,0.00,OVC,,0.72,40.0,WeatherDisplay:10.37,2013-02-08 22:43:00,
2013-02-08 16:48:00,28.9,24.4,30.36,NE,40,3.5,3.5,83,0.00,CLR,,0.72,167.0,WeatherDisplay:10.37,2013-02-08 22:48:00,
2013-02-08 16:53:00,30.9,25.2,30.39,North,355,0.0,0.0,79,0.00,OVC,,0.72,35.0,WeatherDisplay:10.37,2013-02-08 22:53:00,
2013-02-08 16:58:00,28.9,24.4,30.36,NE,40,3.5,3.5,83,0.00,CLR,,0.72,167.0,WeatherDisplay:10.37,2013-02-08 22:58:00,
2013-02-08 17:03:00,30.8,25.1,30.39,North,355,0.0,0.0,79,0.00,OVC,,0.00,19.0,WeatherDisplay:10.37,2013-02-08 23:03:00,
2013-02-08 17:08:00,30.9,25.2,30.39,North,355,0.0,0.0,79,0.00,BKN,,0.72,35.0,WeatherDisplay:10.37,2013-02-08 23:08:00,
2013-02-08 17:13:00,31.2,25.4,30.38,North,355,1.2,1.7,79,0.00,CLR,,0.00,128.0,WeatherDisplay:10.37,2013-02-08 23:13:00,
2013-02-08 17:18:00,30.9,25.2,30.39,North,355,0.0,0.0,79,0.00,CLR,,0.72,35.0,WeatherDisplay:10.37,2013-02-08 23:18:00,
2013-02-08 17:23:00,31.2,25.4,30.38,North,355,1.2,1.7,79,0.00,CLR,,0.00,128.0,WeatherDisplay:10.37,2013-02-08 23:23:00,
2013-02-08 17:28:00,30.9,25.2,30.39,North,355,0.0,0.0,79,0.00,CLR,,0.72,35.0,WeatherDisplay:10.37,2013-02-08 23:28:00,
2013-02-08 17:33:00,31.2,25.4,30.38,North,355,1.2,1.7,79,0.00,OVC,,0.00,128.0,WeatherDisplay:10.37,2013-02-08 23:33:00,
2013-02-08 17:38:00,30.9,25.2,30.39,North,355,0.0,0.0,79,0.00,OVC,,0.72,35.0,WeatherDisplay:10.37,2013-02-08 23:38:00,
2013-02-08 17:43:00,30.5,25.1,30.39,North,355,0.0,0.0,80,0.00,OVC,,0.00,0.0,WeatherDisplay:10.37,2013-02-08 23:43:00,
2013-02-08 17:48:00,30.9,25.2,30.39,North,355,0.0,0.0,79,0.00,OVC,,0.72,35.0,WeatherDisplay:10.37,2013-02-08 23:48:00,
2013-02-08 17:53:00,31.2,25.4,30.38,North,355,1.2,1.7,79,0.00,OVC,,0.00,128.0,WeatherDisplay:10.37,2013-02-08 23:53:00,
2013-02-08 17:58:00,28.9,24.4,30.36,NE,40,3.5,3.5,83,0.00,OVC,,0.72,167.0,WeatherDisplay:10.37,2013-02-08 23:58:00,
2013-02-08 18:03:00,30.9,25.2,30.39,North,355,0.0,0.0,79,0.00,CLR,,0.72,0.0,WeatherDisplay:10.37,2013-02-09 00:03:00,
2013-02-08 18:08:00,30.1,25.0,30.39,ESE,105,0.0,0.0,81,0.00,CLR,,0.00,0.0,WeatherDisplay:10.37,2013-02-09 00:08:00,
2013-02-08 18:13:00,30.1,25.0,30.39,ESE,104,0.0,0.0,81,0.00,CLR,,0.00,0.0,WeatherDisplay:10.37,2013-02-09 00:13:00,
2013-02-08 18:18:00,30.0,24.9,30.39,ESE,104,0.0,0.0,81,0.00,CLR,,0.00,0.0,WeatherDisplay:10.37,2013-02-09 00:18:00,
2013-02-08 18:23:00,28.9,24.4,30.36,NE,40,3.5,3.5,83,0.00,CLR,,0.72,0.0,WeatherDisplay:10.37,2013-02-09 00:23:00,
2013-02-08 18:28:00,29.9,25.1,30.40,ESE,104,0.0,0.0,82,0.00,CLR,,0.00,0.0,WeatherDisplay:10.37,2013-02-09 00:28:00,
2013-02-08 18:33:00,30.0,24.9,30.39,ESE,104,0.0,0.0,81,0.00,CLR,,0.00,0.0,WeatherDisplay:10.37,2013-02-09 00:33:00,
2013-02-08 18:38:00,30.0,24.9,30.39,ESE,104,0.0,0.0,81,0.00,CLR,,0.00,0.0,WeatherDisplay:10.37,2013-02-09 00:38:00,
2013-02-08 18:43:00,29.7,24.9,30.39,ESE,104,0.0,0.0,82,0.00,CLR,,0.00,0.0,WeatherDisplay:10.37,2013-02-09 00:43:00,
2013-02-08 18:48:00,30.9,25.2,30.39,North,355,0.0,0.0,79,0.00,CLR,,0.72,0.0,WeatherDisplay:10.37,2013-02-09 00:48:00,
2013-02-08 18:53:00,30.9,25.2,30.39,North,355,0.0,0.0,79,0.00,CLR,,0.72,0.0,WeatherDisplay:10.37,2013-02-09 00:53:00,
2013-02-08 18:58:00,29.5,24.7,30.38,ESE,104,0.0,0.0,82,0.00,CLR,,0.00,0.0,WeatherDisplay:10.37,2013-02-09 00:58:00,
2013-02-08 19:03:00,30.0,24.9,30.39,ESE,104,0.0,0.0,81,0.00,CLR,,0.00,0.0,WeatherDisplay:10.37,2013-02-09 01:03:00,
2013-02-08 19:08:00,29.5,24.7,30.39,ESE,103,0.0,0.0,82,0.00,CLR,,0.00,0.0,WeatherDisplay:10.37,2013-02-09 01:08:00,
2013-02-08 19:13:00,28.9,24.4,30.36,NE,40,3.5,3.5,83,0.00,CLR,,0.72,0.0,WeatherDisplay:10.37,2013-02-09 01:13:00,
2013-02-08 19:18:00,28.9,24.4,30.36,NE,40,3.5,3.5,83,0.00,CLR,,0.72,0.0,WeatherDisplay:10.37,2013-02-09 01:18:00,
2013-02-08 19:23:00,29.4,24.6,30.40,ESE,104,0.0,0.0,82,0.00,CLR,,0.00,0.0,WeatherDisplay:10.37,2013-02-09 01:23:00,
2013-02-08 19:28:00,30.0,24.9,30.39,ESE,104,0.0,0.0,81,0.00,CLR,,0.00,0.0,WeatherDisplay:10.37,2013-02-09 01:28:00,
2013-02-08 19:33:00,30.0,24.9,30.39,ESE,104,0.0,0.0,81,0.00,CLR,,0.00,0.0,WeatherDisplay:10.37,2013-02-09 01:33:00,
2013-02-08 19:38:00,29.3,24.8,30.40,ESE,104,0.0,0.0,83,0.00,CLR,,0.00,0.0,WeatherDisplay:10.37,2013-02-09 01:38:00,
2013-02-08 19:42:00,29.3,24.8,30.40,ESE,104,0.0,0.0,83,0.00,CLR,,0.00,0.0,WeatherDisplay:10.37,2013-02-09 01:42:00,
2013-02-08 19:47:00,28.9,24.4,30.36,NE,40,3.5,3.5,83,0.00,CLR,,0.72,0.0,WeatherDisplay:10.37,2013-02-09 01:47:00,
2013-02-08 19:52:00,30.0,24.9,30.39,ESE,104,0.0,0.0,81,0.00,CLR,,0.00,0.0,WeatherDisplay:10.37,2013-02-09 01:52:00,
2013-02-08 19:57:00,28.9,24.4,30.36,NE,40,3.5,3.5,83,0.00,CLR,,0.72,0.0,WeatherDisplay:10.37,2013-02-09 01:57:00,
2013-02-08 20:02:00,30.0,24.9,30.39,ESE,104,0.0,0.0,81,0.00,CLR,,0.00,0.0,WeatherDisplay:10.37,2013-02-09 02:02:00,
2013-02-08 20:07:00,28.9,24.4,30.36,NE,40,3.5,3.5,83,0.00,CLR,,0.72,0.0,WeatherDisplay:10.37,2013-02-09 02:07:00,
2013-02-08 20:12:00,28.9,24.4,30.36,NE,40,3.5,3.5,83,0.00,CLR,,0.72,0.0,WeatherDisplay:10.37,2013-02-09 02:12:00,
2013-02-08 20:17:00,30.9,25.2,30.39,North,355,0.0,0.0,79,0.00,CLR,,0.72,0.0,WeatherDisplay:10.37,2013-02-09 02:17:00,
2013-02-08 20:22:00,30.0,24.9,30.39,ESE,104,0.0,0.0,81,0.00,CLR,,0.00,0.0,WeatherDisplay:10.37,2013-02-09 02:22:00,
2013-02-08 20:27:00,30.0,24.9,30.39,ESE,104,0.0,0.0,81,0.00,CLR,,0.00,0.0,WeatherDisplay:10.37,2013-02-09 02:27:00,
2013-02-08 20:32:00,28.9,24.4,30.36,NE,40,3.5,3.5,83,0.00,CLR,,0.72,0.0,WeatherDisplay:10.37,2013-02-09 02:32:00,
2013-02-08 20:37:00,28.9,24.4,30.36,NE,40,3.5,3.5,83,0.00,CLR,,0.72,0.0,WeatherDisplay:10.37,2013-02-09 02:37:00,
2013-02-08 20:42:00,29.2,24.7,30.38,ESE,118,3.5,3.5,83,0.00,CLR,,0.00,0.0,WeatherDisplay:10.37,2013-02-09 02:42:00,
2013-02-08 20:47:00,30.0,24.9,30.39,ESE,104,0.0,0.0,81,0.00,CLR,,0.00,0.0,WeatherDisplay:10.37,2013-02-09 02:47:00,
2013-02-08 20:52:00,30.0,24.9,30.39,ESE,104,0.0,0.0,81,0.00,CLR,,0.00,0.0,WeatherDisplay:10.37,2013-02-09 02:52:00,
2013-02-08 20:57:00,29.0,24.5,30.39,ESE,119,0.0,0.0,83,0.00,CLR,,0.72,0.0,WeatherDisplay:10.37,2013-02-09 02:57:00,
2013-02-08 21:02:00,29.0,24.5,30.39,ESE,119,0.0,0.0,83,0.00,CLR,,0.72,0.0,WeatherDisplay:10.37,2013-02-09 03:02:00,
2013-02-08 21:07:00,29.0,24.8,30.39,ESE,118,0.0,0.0,84,0.00,CLR,,0.72,0.0,WeatherDisplay:10.37,2013-02-09 03:07:00,
2013-02-08 21:12:00,29.0,24.5,30.39,ESE,119,0.0,0.0,83,0.00,CLR,,0.72,0.0,WeatherDisplay:10.37,2013-02-09 03:12:00,
2013-02-08 21:17:00,29.1,24.6,30.39,ESE,118,1.2,2.6,83,0.00,CLR,,0.00,0.0,WeatherDisplay:10.37,2013-02-09 03:17:00,
2013-02-08 21:22:00,29.1,24.6,30.39,ESE,118,1.2,2.6,83,0.00,CLR,,0.00,0.0,WeatherDisplay:10.37,2013-02-09 03:22:00,
2013-02-08 21:27:00,29.0,24.5,30.39,ESE,119,0.0,0.0,83,0.00,CLR,,0.72,0.0,WeatherDisplay:10.37,2013-02-09 03:27:00,
2013-02-08 21:32:00,29.0,24.5,30.39,ESE,119,0.0,0.0,83,0.00,CLR,,0.72,0.0,WeatherDisplay:10.37,2013-02-09 03:32:00,
2013-02-08 21:37:00,29.1,24.6,30.39,ESE,118,1.2,2.6,83,0.00,CLR,,0.00,0.0,WeatherDisplay:10.37,2013-02-09 03:37:00,
2013-02-08 21:42:00,28.9,24.7,30.39,ESE,119,0.0,0.0,84,0.00,CLR,,0.00,0.0,WeatherDisplay:10.37,2013-02-09 03:42:00,
2013-02-08 21:47:00,29.0,24.5,30.39,ESE,119,0.0,0.0,83,0.00,CLR,,0.72,0.0,WeatherDisplay:10.37,2013-02-09 03:47:00,
2013-02-08 21:52:00,28.9,24.7,30.39,ESE,119,0.0,0.0,84,0.00,CLR,,0.00,0.0,WeatherDisplay:10.37,2013-02-09 03:52:00,
2013-02-08 21:57:00,28.6,24.4,30.39,SE,132,0.0,0.0,84,0.00,CLR,,0.72,0.0,WeatherDisplay:10.37,2013-02-09 03:57:00,
2013-02-08 22:02:00,29.0,24.5,30.39,ESE,119,0.0,0.0,83,0.00,CLR,,0.72,0.0,WeatherDisplay:10.37,2013-02-09 04:02:00,
2013-02-08 22:07:00,29.1,24.6,30.39,ESE,118,1.2,2.6,83,0.00,CLR,,0.00,0.0,WeatherDisplay:10.37,2013-02-09 04:07:00,
2013-02-08 22:12:00,29.0,24.5,30.39,ESE,119,0.0,0.0,83,0.00,CLR,,0.72,0.0,WeatherDisplay:10.37,2013-02-09 04:12:00,
2013-02-08 22:17:00,29.0,24.5,30.39,ESE,119,0.0,0.0,83,0.00,CLR,,0.72,0.0,WeatherDisplay:10.37,2013-02-09 04:17:00,
2013-02-08 22:22:00,28.9,24.7,30.39,ESE,119,0.0,0.0,84,0.00,CLR,,0.00,0.0,WeatherDisplay:10.37,2013-02-09 04:22:00,
2013-02-08 22:27:00,28.9,24.7,30.39,ESE,119,0.0,0.0,84,0.00,CLR,,0.00,0.0,WeatherDisplay:10.37,2013-02-09 04:27:00,
2013-02-08 22:32:00,28.9,24.7,30.39,ESE,119,0.0,0.0,84,0.00,CLR,,0.00,0.0,WeatherDisplay:10.37,2013-02-09 04:32:00,
2013-02-08 22:37:00,28.9,24.7,30.39,ESE,119,0.0,0.0,84,0.00,CLR,,0.00,0.0,WeatherDisplay:10.37,2013-02-09 04:37:00,
2013-02-08 22:42:00,28.9,24.7,30.39,ESE,119,0.0,0.0,84,0.00,CLR,,0.00,0.0,WeatherDisplay:10.37,2013-02-09 04:42:00,
2013-02-08 22:47:00,28.1,23.9,30.39,East,94,3.5,3.5,84,0.00,CLR,,0.72,0.0,WeatherDisplay:10.37,2013-02-09 04:47:00,
2013-02-08 22:52:00,28.0,23.8,30.39,SE,134,3.5,3.5,84,0.00,CLR,,0.00,0.0,WeatherDisplay:10.37,2013-02-09 04:52:00,
2013-02-08 22:57:00,28.1,23.9,30.39,East,94,0.0,0.0,84,0.00,CLR,,0.72,0.0,WeatherDisplay:10.37,2013-02-09 04:57:00,
2013-02-08 23:00:00,29.0,24.5,30.39,ESE,119,0.0,0.0,83,0.00,CLR,,0.72,0.0,WeatherDisplay:10.37,2013-02-09 05:00:00,
2013-02-08 23:05:00,28.1,23.9,30.39,East,94,0.0,0.0,84,0.00,CLR,,0.72,0.0,WeatherDisplay:10.37,2013-02-09 05:05:00,
2013-02-08 23:10:00,28.1,23.9,30.39,East,94,0.0,0.0,84,0.00,CLR,,0.72,0.0,WeatherDisplay:10.37,2013-02-09 05:10:00,
2013-02-08 23:15:00,29.0,24.5,30.39,ESE,119,0.0,0.0,83,0.00,CLR,,0.72,0.0,WeatherDisplay:10.37,2013-02-09 05:15:00,
2013-02-08 23:20:00,28.4,24.2,30.40,SE,132,0.0,1.0,84,0.00,CLR,,0.00,0.0,WeatherDisplay:10.37,2013-02-09 05:20:00,
2013-02-08 23:25:00,27.4,23.2,30.40,ESE,121,3.5,3.5,84,0.00,CLR,,0.00,0.0,WeatherDisplay:10.37,2013-02-09 05:25:00,
2013-02-08 23:30:00,29.0,24.5,30.39,ESE,119,0.0,0.0,83,0.00,CLR,,0.72,0.0,WeatherDisplay:10.37,2013-02-09 05:30:00,
2013-02-08 23:35:00,28.1,23.9,30.39,East,94,0.0,0.0,84,0.00,CLR,,0.72,0.0,WeatherDisplay:10.37,2013-02-09 05:35:00,
2013-02-08 23:40:00,27.2,23.3,30.39,SE,137,3.5,3.5,85,0.00,CLR,,0.00,0.0,WeatherDisplay:10.37,2013-02-09 05:40:00,
2013-02-08 23:45:00,29.0,24.5,30.39,ESE,119,0.0,0.0,83,0.00,CLR,,0.72,0.0,WeatherDisplay:10.37,2013-02-09 05:45:00,
2013-02-08 23:50:00,28.4,24.2,30.40,SE,132,0.0,1.0,84,0.00,CLR,,0.00,0.0,WeatherDisplay:10.37,2013-02-09 05:50:00,
2013-02-08 23:55:00,27.1,23.2,30.40,ESE,119,0.0,0.0,85,0.00,CLR,,0.00,0.0,WeatherDisplay:10.37,2013-02-09 05:55:00,